Location: Branche des Alpilles
(43.6087°N, 4.6976°E)
Time: 12:46:21
(UTC+00:00)

SL-08 R/B - Pass Details

Date: 30 November 2020
Orbit: 950 x 1018 km, 82.9° (Epoch: 25 January)

Event Time Altitude Azimuth Distance (km) Brightness Sun altitude
Rises 17:36:12 0° 353° (N) 3,651 7.4 -15.9°
Reaches altitude 10° 17:38:44 10° 356° (N) 2,695 6.7 -16.3°
Maximum altitude 17:44:52 71° 80° (E) 1,007 4.3 -17.4°
Drops below altitude 10° 17:50:57 10° 165° (SSE) 2,668 6.8 -18.5°
Sets 17:53:26 0° 167° (SSE) 3,612 7.5 -18.9°
